EW6193 Weather Reports


Display with metric or nautical units.
time (UTC)temp
F
wind
direction
speed
MPH
gust
MPH
rain 1hr
in
rain 24hr
in
rain mn
in
humidity
%
barometer
mb
20260504020021 64 57 1.0 3.0 0.00 0.00 0.00 64 1029.7
20260504014533 64 87 0.0 3.0 0.00 0.00 0.00 62 1029.8
20260504013018 63 32 0.0 4.0 0.00 0.00 0.00 62 1029.9
20260504011517 62 82 2.0 5.0 0.00 0.00 0.00 63 1030.0
20260504010015 62 65 1.0 6.0 0.00 0.00 0.00 64 1030.3
20260504004513 62 77 1.0 4.0 0.00 0.00 0.00 64 1030.5
20260504003024 62 68 1.0 5.0 0.00 0.00 0.00 65 1030.6
20260504001509 63 94 0.0 3.0 0.00 0.00 0.00 61 1030.8
20260504000006 63 273 0.0 0.0 0.00 0.00 0.00 61 1031.1
20260503234511 62 319 0.0 1.0 0.00 0.00 0.00 62 1031.3
20260503233002 61 212 0.0 3.0 0.00 0.00 0.00 58 1031.4
20260503231558 59 249 0.0 1.0 0.00 0.00 0.00 60 1031.5
20260503224550 57 245 0.0 0.0 0.00 0.00 0.00 65 1031.6
20260503223051 55 245 0.0 1.0 0.00 0.00 0.00 68 1031.6
20260503221544 53 252 0.0 2.0 0.00 0.00 0.00 71 1031.8
20260503220037 51 250 0.0 3.0 0.00 0.00 0.00 75 1031.8
20260503214534 49 239 1.0 4.0 0.00 0.00 0.00 77 1031.8
20260503213029 48 244 1.0 5.0 0.00 0.00 0.00 82 1032.0
20260503211524 46 253 1.0 3.0 0.00 0.00 0.00 85 1032.0
20260503210026 44 243 2.0 3.0 0.00 0.00 0.00 87 1032.1
20260503204517 44 263 0.0 1.0 0.00 0.00 0.00 91 1032.2
20260503203019 42 264 0.0 0.0 0.00 0.00 0.00 93 1032.1
20260503201510 39 264 0.0 1.0 0.00 0.00 0.00 93 1031.9
20260503200009 38 270 0.0 0.0 0.00 0.00 0.00 94 1031.9
20260503194510 36 270 0.0 0.0 0.00 0.00 0.00 94 1031.8
20260503193009 35 270 0.0 0.0 0.00 0.00 0.00 93 1031.6
20260503191507 34 270 0.0 0.0 0.00 0.00 0.00 93 1031.5
20260503190005 35 270 0.0 0.0 0.00 0.00 0.00 93 1031.5
20260503184507 35 270 0.0 0.0 0.00 0.00 0.00 93 1031.5
20260503183002 35 270 0.0 0.0 0.00 0.00 0.00 93 1031.4
20260503181502 35 270 0.0 2.0 0.00 0.00 0.00 93 1031.3
20260503180100 36 264 0.0 0.0 0.00 0.00 0.00 92 1031.3
20260503174558 36 263 0.0 0.0 0.00 0.00 0.00 93 1031.2
20260503173117 37 264 0.0 0.0 0.00 0.00 0.00 93 1031.3
20260503171552 37 264 0.0 1.0 0.00 0.00 0.00 93 1031.5
20260503081502 43 258 0.0 1.0 0.00 0.00 0.00 88 1030.7
20260503071616 47 63 0.0 1.0 0.00 0.00 0.00 84 1030.3
20260503070107 49 63 0.0 0.0 0.00 0.00 0.00 84 1030.1
20260503054546 57 63 0.0 0.0 0.00 0.00 0.00 74 1029.5
20260503053046 59 63 0.0 0.0 0.00 0.00 0.00 73 1029.4
20260503051545 61 63 0.0 0.0 0.00 0.00 0.00 70 1029.4
20260503050045 63 63 0.0 2.0 0.00 0.00 0.00 66 1029.3
20260503044544 64 68 0.0 0.0 0.00 0.00 0.00 62 1029.2
20260503043047 64 72 1.0 2.0 0.00 0.00 0.00 61 1029.2
20260503041546 64 75 0.0 2.0 0.00 0.00 0.00 61 1029.2
20260503040053 64 84 0.0 1.0 0.00 0.00 0.00 62 1029.3
20260503034559 64 85 0.0 2.0 0.00 0.00 0.00 62 1029.2
20260503033044 64 106 0.0 1.0 0.00 0.00 0.00 61 1029.4
20260503031542 64 77 1.0 2.0 0.00 0.00 0.00 59 1029.4
20260503030050 64 82 1.0 4.0 0.00 0.00 0.00 59 1029.4
20260503024537 65 55 1.0 4.0 0.00 0.00 0.00 59 1029.5
20260503023037 65 77 0.0 3.0 0.00 0.00 0.00 60 1029.7
20260503021541 65 39 0.0 3.0 0.00 0.00 0.00 59 1029.8